AirNav   Air Wisconsin pilot careers
 
 351 users online  

1R4 Woodworth Airport
Woodworth, Louisiana, USA

GOING TO WOODWORTH?


FAA INFORMATION EFFECTIVE 11 OCTOBER 2018

Location

FAA Identifier: 1R4
Lat/Long: 31-07-34.8700N / 092-30-04.6400W
31-07.581167N / 092-30.077333W
31.1263528 / -92.5012889
(estimated)
Elevation: 140 ft. / 43 m (estimated)
Variation: 04E (1985)
From city: 2 miles S of WOODWORTH, LA
Time zone: UTC -5 (UTC -6 during Standard Time)
Zip code: 71430

Airport Operations

Airport use: Open to the public
Activation date: 01/1960
Control tower: no
ARTCC: HOUSTON CENTER
FSS: DE RIDDER FLIGHT SERVICE STATION
NOTAMs facility: DRI (NOTAM-D service available)
Attendance: UNATNDD
Wind indicator: lighted, WINDSOCK LGTS OTS INDEFLY.
Segmented circle: no
Lights: ACTVT MIRL RY 01/19 - 122.8.
Beacon: white-green (lighted land airport)
ARPT ROTG BEACON OTS. Operates sunset to sunrise.

Airport Communications

CTAF: 122.9
WX ASOS at AEX (12 nm N): 123.975 (318-442-6583)
WX ASOS at ESF (19 nm NE): PHONE 318-484-9031

Nearby radio navigation aids

VOR radial/distance  VOR name  Freq  Var
AEXr177/7.8ALEXANDRIA VORTAC116.1003E
FXUr087/(36.9)POLK VOR108.4002E

 
NDB name  Hdg/Dist  Freq  Var  ID
OAKDALE015/30.737903ELRR .-.. .-. .-.
DURALDE353/34.126302EECY . -.-. -.--
GATOR078/35.635902EGUV --. ..- ...-

Airport Services

Parking: tiedowns

Runway Information

Runway 1/19

Dimensions: 3100 x 75 ft. / 945 x 23 m
Surface: asphalt, in fair condition
NUMEROUS 2 INCH CRACKS ON RY.
Weight bearing capacity: 
Single wheel: 12.0
Runway edge lights: medium intensity
RUNWAY 1  RUNWAY 19
Latitude: 31-07.337000N31-07.825333N
Longitude: 092-30.165500W092-29.989167W
Traffic pattern: leftleft
Markings: basic, in good conditionbasic, in good condition
Visual slope indicator: 2-box SAVASI on right (4.00 degrees glide path)
SAVASI OTS INDEFLY.
2-box SAVASI on right (4.00 degrees glide path)
SAVASI OTS INDEFLY.
Obstructions: 64 ft. trees, 553 ft. from runway, 69 ft. left of centerline, 5:1 slope to clear63 ft. trees, 635 ft. from runway, 128 ft. right of centerline, 6:1 slope to clear

Airport Ownership and Management from official FAA records

Ownership: Publicly-owned
Owner: LA DEPT OF AG AND FORESTRY
PO BOX 298
WOODWORTH, LA 71485
Phone 318-487-5989
Manager: RENE' SIMON
LA DEPT OF AG AND FORESTRY, 5825 FLORIDA BLVD, SUITE 1002
BATON ROUGE, LA 70806-3481
Phone (225) 922-8074
ADDITIONAL CONTACT DAMIAN JOHNSON 225-301-8144

Airport Operational Statistics

Aircraft based on the field: 11
Single engine airplanes: 9
Helicopters: 2
    
Aircraft operations: avg 49/day *
56% local general aviation
44% transient general aviation
* for 12-month period ending 05 June 2018

Additional Remarks

HELICOPTER TRAFFIC ON FIELD.

Instrument Procedures

There are no published instrument procedures at 1R4.

Some nearby airports with instrument procedures:

KAEX - Alexandria International Airport (12 nm N)
2R6 - Bunkie Municipal Airport (17 nm SE)
KESF - Esler Regional Airport (19 nm NE)
KMKV - Marksville Municipal Airport (22 nm E)
KACP - Allen Parish Airport (25 nm SW)
 
Loc | Ops | Rwys | IFR | FBO | Links
Com | Nav | Svcs | Stats | Notes


 
Area around 1R4 (Woodworth Airport)
 
Road maps at: MapQuest Bing Google
 
Aerial photo
No photo
 
Sectional chart

 
Airport distance calculator
Flying to Woodworth Airport? Find the distance to fly.

From to 1R4

Sunrise and sunset
Times for 22-Oct-2018
 Local
(UTC-5)
 Zulu
(UTC)
Morning civil twilight06:5411:54
Sunrise07:1912:19
Sunset18:3023:30
Evening civil twilight18:5523:55

Current date and time
Zulu (UTC)  22-Oct-2018 09:08:41
Local (UTC-5)  22-Oct-2018 04:08:41
 
METAR
KAEX 
13nm N 
220853Z 00000KT 10SM CLR 07/05 A3018 RMK AO2 SLP224 T00670050 56009
KESF 
20nm NE 
220853Z AUTO 00000KT 10SM CLR 06/06 A3020 RMK AO2 SLP224 T00610056 56008
KBKB 
22nm W 
220854Z AUTO 10SM CLR 08/06 A3016 RMK AO2 SLP241 T00780061 58011 $
KACP 
25nm SW 
220855Z AUTO 00000KT 10SM CLR 08/06 A3018 RMK AO2 T00820063
KPOE 
25nm W 
220858Z AUTO 05005KT 10SM SCT230 09/05 A3017 RMK AO2 SLP218 T00900048 57009
TAF
KAEX 
13nm N 
220520Z 2206/2306 VRB05KT P6SM FEW250
NOTAMs
Click for the latest NOTAMs
NOTAMs are issued by the DoD/FAA and will open in a separate window not controlled by AirNav.

 

 
 

Would you like to see your business listed on this page?

 If your business provides an interesting product or service to pilots, flight crews, aircraft, or users of the Woodworth Airport, you should consider listing it here.  To start the listing process, click on the button below
 
Add a business
 

Other Pages about Woodworth Airport

Update a link
 
Copyright © AirNav, LLC. All rights reserved. Privacy Policy  Contact